Погода в Сухане

Погода в Сухане : погода сейчас, прогноз погоды и архив. Всё, что Вы хотите узнать о погоде в Сухане!

Поиск расширенной информации на нашем сайте:

Другие новости

Новости СМИ2

Главная страница сайта

Новости сайта

03.07.2017

Напоминаем, что на нашем специализированном сайте Метеоцентр.Азия вы можете получить высокодетализированные автоматические прогнозы погоды по пунктам России, СНГ и мира в авиационном формате (включающие направление и скорость ветра, видимость, явления погоды, количество и форму облачности, нижнюю и верхнюю границу облачности).

Рекомендуем: Читайте продажа моторных яхт услуги.

Погода в Сухане - сегодня

Время (UTC), дата Ветер
(°,м/с) 
Видим.   Явления Облачность Т
(°С)
Тd
(°С)
f(%) Тe
(°С)
Pmin
(гПа)
dP
(гПа)
Po
(мм)
O2
(г/м3)
Тmin Tmax R s Состояние
почвы
15 19.02.18 тихо ()   20000 м  пыль{снег}  6/0 верхняя 
[Cs]
-38.9 -42.4 69 -39  1023.4  -0.3  759  359           
18 19.02.18 тихо ()   20000 м  {снег}  ясно 
-41.1 -44.4 70 -41  1023  -0.4  759  362           
21 19.02.18 тихо ()   20000 м  слаб. снег  10/0 верхняя 
[Cs]
-43.8   1021.7  -1.3  758             
03 20.02.18 250 (З) 20000 м  слаб. снег  10/0 средняя 
[Ac As]
-34.9 -38.4 70 -36  1019.4  -1.3  756  351           
06 20.02.18 240 (ЮЗ) 20000 м  слаб. снег  9/0 средняя 
[Ac As]
-31.5 -35.2 70 -35  1018  -1.1  755  346           
09 20.02.18 тихо ()   20000 м    8/0 средняя 
[Ac As]
-29.3 -33.1 70 -29  1017.4  -0.6  755  343           
15 20.02.18 260 (З) 20000 м  слаб. снег  10/0 средняя 
[Ac cast]
-26 -29.1 75 -29  1013.3  -2.4  752  337           
18 20.02.18 260 (З) 82  20000 м  слаб. снег  10/0 средняя 
[As op]
-23.2 -26.4 75 -47  1010.5  -2.7  750  332           
21 20.02.18 200 (Ю) 20000 м  слаб. снег  10/0 средняя 
[As op]
-21.5 -24.7 75 -26  1008.5  -1.8  749  329           
03 21.02.18 240 (ЮЗ) 20000 м  слаб. снег  10/0 средняя 
[As op]
-22.5 -26.5 70 -25  1008.3  748  330           
06 21.02.18 200 (Ю) 20000 м  слаб. снег  10/0 средняя 
[As op]
-21.7 -25.7 70 -25  1008.5  0.2  749  329           
09 21.02.18 200 (Ю) 10 км  слаб. снег  10/0 средняя 
[As op]
-21.8 -25 75 -25  1009.4  0.9  749  330           
15 21.02.18 200 (Ю) 20000 м  слаб. снег  10/0 верхняя 
[Cs]
-23.9 -27.1 75 -27  1010.4  0.3  750  333           
18 21.02.18 340 (С) 20000 м  слаб. снег  10/0 верхняя 
[Cs]
-28.2 -31.3 75 -32  1011.5  0.8  750  339           
21 21.02.18 тихо ()   20000 м  слаб. снег  10/0 верхняя 
[Cs]
-29.4 -32.4 75 -29  1012.7  1.2  751  341           
03 22.02.18 020 (С) 20000 м    8/0 верхняя 
[Cs]
-29.2 -32.9 70 -33  1016  1.7  754  342           
06 22.02.18 090 (В) 20000 м    3/0 верхняя 
[Cs]
-27.4 -31.2 70 -31  1017.7  1.9  755  340           
09 22.02.18 080 (В) 20000 м    3/0 верхняя 
[Cs]
-29.2 -32.9 70 -35  1021.3  3.3  758  344           
12 22.02.18 160 (Ю) 20000 м    ясно 
-29.6 -33.3 70 -35  1024.3  760  345    -27.4       
15 22.02.18 020 (С) 20000 м    ясно 
-33.3 -36.9 70 -39  1026.5  1.9  761  351           
18 22.02.18 тихо ()   20000 м    ясно 
-36.2 -39.7 70 -36  1028.5  763  356           
21 22.02.18 тихо ()   20000 м    ясно 
-38.2 -41.5 71 -38  1031  2.3  765  360           
00 23.02.18 тихо ()   20000 м    ясно 
-41.6 -44.9 70 -42  1033  1.9  766  366  -41.6      39  равномерный
сухой снег
100% 
03 23.02.18 тихо ()   20000 м    ясно 
-37.3 -40.7 71 -37  1034.2  1.4  767  360           
06 23.02.18 тихо ()   20000 м    ясно 
-32.5 -36.9 65 -33  1034.9  0.7  768  353           
Время (UTC), дата Ветер
(°,м/с) 
Видим.   Явления Облачность Т
(°С)
Тd
(°С)
f(%) Тe
(°С)
Pmin
(гПа)
dP
(гПа)
Po
(мм)
O2
(г/м3)
Тmin Tmax R s Состояние
почвы

Для получения пояснительной информации подведите курсор к названию столбца.

ПОГОДА в Сухане - архив

Всё, что Вы хотите узнать о погоде в Сухане - удобно и подробно!

Выберите нужную дату (начиная с 1 января 2015* года) и нажмите кнопку "Найти".
Будут отображены архивные сводки погоды по пункту Сухана, начиная с указанной даты.


Отображать данные в формате CSV (для использования в таблицах Excel)


Внимание! Наш архив погоды предназначен исключительно для личного некоммерческого использования в познавательных целях. Если Вам необходимы официальные справки о состоянии погоды (для производственных, юридических, коммерческих и т.п. целей), обращайтесь в органы Росгидромета.

*Примечание: данная дата относится к архиву по метеостанциям СССР (Россия, СНГ, Балтия).
Архив по метеостанциям Зарубежной Европы и Азии (кроме Китая) хранится 10 дней, по другим регионам земного шара (Китай, Африка, Америка, Австралия, Океания) - 1 день.

Сухана - район местоположения метеостанции


Название, широта, долгота, высота метеостанции:
Сухана 68.62°ш. 118.33°д. 77 м над ур. моря [Российская Федерация]

Дополнительная информация

В oтличие oт бoльшинства пoгoдных сайтoв мы публикуем пoдрoбную метеoинфoрмацию в детальнoм прoфессиoнальнoм фoрмате.

Характеристики температуры и влажнoсти вoздуха измеряются на высoте 2 м в тени вдали oт зданий и деревьев.
Скoрoсть ветра измеряется на высoте 10 м (на урoвне рoста челoвека скoрoсть ветра ниже в 1.5-2 раза). Если метеoстанция нахoдится в гoрoде или в лесу, тo скoрoсть ветра занижена на 2-4 м/с пo сравнению с oткрытым местoм. Скoрoсть ветра над акватoриями крупных рек и oзёр, а также на вершинах хoлмoв на 2-5 м/с выше, чем в oбычных услoвиях.
Атмoсфернoе давление в разных тoчках местнoсти мoжет значительнo oтличаться oт давления на метеoстанции, в зависимoсти oт услoвий рельефа (при пoдъёме на 10 м давление пoнижается примернo на 1 мм рт.ст.).